Flag for U.S.A. Weather past 2 weeks in Huntington Beach, California, U.S.A.

75 °F

Scattered clouds.

Feels Like: 77 °F
Forecast: 61 / 75 °F
Wind: No wind

Location: John Wayne Airport-Orange County Airport

Current Time: Oct 6, 2015 at 1:46:36 PM

Latest Report: Oct 6, 2015 at 12:53 PM

Visibility: 10 mi

Pressure: 30.07 "Hg

Humidity: 58%

Dew point: 59 °F

Location of Huntington BeachLocation

Historic Weather in Huntington Beach — Graph


Huntington Beach temperature yesterday

Maximum temperature yesterday: 73 °F (at 1:53 PM)
Minimum temperature yesterday: 61 °F (at 2:53 AM)
Average temperature yesterday: 67 °F

Past Weeks' High & Low Weather Summary

High87 °F (Sep 25, 1:53 PM)100% (Sep 26, 4:01 AM)30.10 "Hg (Sep 26, 4:01 AM)
Low61 °F (Oct 5, 2:53 AM)37% (Sep 25, 2:53 PM)29.55 "Hg (Oct 3, 6:53 PM)
Average73 °F74%29.83 "Hg
* Reported Sep 21 11:53 AM — Oct 6 11:53 AM, Huntington Beach, Weather by CustomWeather, © 2015

Note: Actual official high and low records may vary slightly from our data, if they occured in-between our weather recording intervals... More about our weather records


Huntington Beach weather history for previous 24 hours

Time TempWeatherWind HumidityBarometerVisibility
11:53 AM
Tue, Oct 6
75 °FBroken clouds.7 mph54%30.09 "Hg10 mi
10:53 AM72 °FPartly sunny.5 mph61%30.10 "Hg10 mi
9:53 AM71 °FScattered clouds.5 mph66%30.09 "Hg10 mi
8:53 AM69 °FPassing clouds.No wind66%30.08 "Hg10 mi
7:53 AM66 °FPassing clouds.3 mph70%30.05 "Hg10 mi
6:53 AM63 °FPassing clouds.3 mph81%30.03 "Hg10 mi
5:53 AM62 °FClear.No wind86%30.02 "Hg10 mi
4:53 AM64 °FClear.No wind81%30.01 "Hg10 mi
3:53 AM64 °FClear.3 mph81%30.00 "Hg10 mi
2:53 AM65 °FClear.No wind78%30.00 "Hg10 mi
1:53 AM65 °FClear.No wind78%30.00 "Hg10 mi
12:53 AM66 °FClear.No wind78%30.00 "Hg10 mi
11:53 PM
Mon, Oct 5
67 °FPassing clouds.5 mph76%30.00 "Hg10 mi
10:53 PM68 °FClear.3 mph73%30.00 "Hg10 mi
9:53 PM68 °FClear.5 mph73%29.98 "Hg10 mi
8:53 PM69 °FOvercast.No wind70%29.97 "Hg10 mi
7:53 PM69 °FOvercast.5 mph68%29.95 "Hg10 mi
6:53 PM69 °FPartly sunny.6 mph68%29.93 "Hg10 mi
5:53 PM70 °FBroken clouds.8 mph66%29.92 "Hg10 mi
4:53 PM72 °FScattered clouds.10 mph61%29.90 "Hg10 mi
3:53 PM72 °FScattered clouds.14 mph59%29.88 "Hg10 mi
2:53 PM73 °FScattered clouds.10 mph57%29.88 "Hg10 mi
1:53 PM73 °FScattered clouds.14 mph55%29.87 "Hg10 mi
Weather by CustomWeather, © 2015

See weather overviewHow to use our weather pages